Location: Waldport
(44.4270°N, 124.0680°W)
Time: 11:48:34
(UTC-07:00)

Daily predictions for brighter satellites

Satellite Brightness Start Highest point End
(mag) Time Altitude Azimuth Time Altitude Azimuth Time Altitude Azimuth
Cosmos 2315 Rocket 4.1 21:32:11 10° N 21:38:24 71° E 21:44:34 10° SSE
Cosmos 2219 Rocket 2.7 21:33:34 10° NNW 21:38:58 46° ENE 21:44:20 10° SE
Lacrosse 4 Rocket 3.8 21:37:51 10° N 21:40:24 15° NE 21:42:57 10° ENE
COSMOS 2428 2.8 21:38:03 10° NNW 21:43:47 87° WSW 21:49:29 10° SSE
Cosmos 405 4.5 21:40:24 10° NNW 21:43:48 38° W 21:47:10 10° SSW
Cosmos 2058 3.0 21:40:07 10° S 21:44:08 58° E 21:48:12 10° NNE
Cosmos 2151 3.1 21:41:31 10° S 21:45:41 80° W 21:49:56 10° N
Cosmos 1680 Rocket 4.4 21:42:20 10° NNW 21:47:22 48° WSW 21:52:25 10° S
NOSS 0 Rocket 4.4 21:41:25 10° NNW 21:47:26 51° ENE 21:53:25 10° SE
Cosmos 1437 3.7 21:48:09 10° SSW 21:51:22 53° WNW 21:54:36 10° N
Tiangong 1 1.3 21:50:21 10° WSW 21:53:23 48° SSE 21:56:23 10° E
Terra 3.6 21:54:01 10° ESE 21:57:11 18° ENE 22:00:23 10° NNE
COSMOS 2455 4.1 21:53:49 10° NNW 21:59:08 31° NE 22:04:27 10° ESE
Cosmos 1939 Rocket 3.5 21:56:22 10° S 22:00:12 52° W 22:04:00 10° NNW
Cosmos 1898 Rocket 3.5 21:55:14 10° S 22:00:21 65° ESE 22:05:32 10° NNE
H-2A R/B 3.5 21:56:23 10° ESE 22:00:43 25° ENE 22:05:05 10° N
Cosmos 1980 4.1 21:58:05 10° NNW 22:03:37 52° ENE 22:08:40 12° SE
CZ-4 SHROUD 3.2 22:01:37 10° SSE 22:04:44 85° WSW 22:07:54 10° NNW
Cosmos 1745 Rocket 4.4 22:02:17 10° SSE 22:08:05 44° E 22:13:53 10° NNE
MetOp-B 4.2 22:05:17 10° SSE 22:10:39 88° ENE 22:16:03 10° NNW
Cosmos 1271 Rocket 2.8 22:08:44 10° N 22:12:35 65° ENE 22:16:00 13° SSE
OAO 2 Rocket 4.4 22:08:31 10° SW 22:13:03 29° S 22:16:58 13° ESE
SPOT 1/Viking Rocket 3.6 22:08:10 11° SSE 22:13:07 66° ENE 22:18:15 10° N
NOSS 3-1 (A) 3.4 22:07:46 10° SSW 22:13:42 85° SE 22:20:20 10° NE
Cosmos 1626 3.5 22:11:30 14° SE 22:13:43 23° E 22:16:44 10° NE
Cosmos 2219 4.0 22:08:29 10° SW 22:14:09 57° WNW 22:19:50 10° NNE
Sich 1 3.0 22:10:04 10° S 22:14:28 77° E 22:18:52 10° NNE
Cosmos 2237 Rocket 2.5 22:09:41 10° NNW 22:15:20 59° ENE 22:20:07 14° SE
ERBS 2.4 22:13:04 10° SSW 22:16:30 53° SE 22:19:54 10° ENE
Cosmos 2150 Rocket 4.1 22:11:28 10° SSW 22:16:56 90° WNW 22:22:26 10° NNE
YAOGAN 6 2.5 22:13:57 12° SSE 22:17:20 87° ENE 22:20:56 10° NNW
Iridium 2 4.2 22:15:42 14° SSE 22:18:44 41° E 22:22:23 10° NNE
Cosmos 1862 Rocket 4.3 22:15:15 10° N 22:19:17 36° ENE 22:22:14 16° SE
Cosmos 1633 Rocket 3.0 22:18:05 10° S 22:22:28 88° E 22:26:51 10° N
Cosmos 2082 4.0 22:18:05 10° S 22:23:32 48° ESE 22:29:01 10° NE
Cosmos 2360 Rocket 4.3 22:19:28 10° NW 22:23:33 21° W 22:27:39 10° SSW
Cosmos 2242 Rocket 3.7 22:23:30 10° N 22:28:00 83° W 22:32:08 12° S
Cosmos 1703 3.2 22:25:33 10° S 22:29:26 73° E 22:33:21 10° NNE
CZ-4C R/B 3.7 22:27:55 19° SE 22:29:59 40° ENE 22:33:17 10° N
SL-14 R/B 3.9 22:27:11 10° SSW 22:31:06 58° WNW 22:35:06 10° N
NOAA 11 4.2 22:27:00 14° SSE 22:31:41 78° ENE 22:37:10 10° N
CZ-4 R/B 3.9 22:27:53 10° NNE 22:32:45 59° ESE 22:37:15 11° S
Envisat 4.4 22:30:36 10° SSW 22:35:12 35° W 22:39:51 10° NNW
ATLAS 2AS CENTAUR R/B 3.1 22:28:41 10° SSW 22:35:55 55° ESE 22:43:44 10° NE
USA 245 2.4 22:35:52 23° S 22:37:05 54° WSW 22:39:18 10° NNW
Cosmos 192 4.4 22:37:32 10° NNW 22:42:28 71° ENE 22:45:44 21° SSE
ATLAS 3B R/B 3.0 22:35:46 10° NNW 22:42:48 62° NE 22:47:56 18° SE
Cosmos 220 Rocket 4.3 22:39:06 10° SSW 22:43:29 69° WNW 22:47:57 10° NNE
USA 32 4.3 22:43:39 10° N 22:48:52 68° W 22:53:36 13° S
Cosmos 1937 Rocket 4.0 22:49:03 10° SSW 22:54:13 61° WNW 22:59:23 10° NNE
Cosmos 2227 Rocket 2.2 22:49:33 10° SSW 22:55:13 87° ESE 23:00:56 10° NNE
CZ-4C R/B 4.2 22:51:48 10° NNW 22:57:40 30° NE 23:04:05 10° E
DMSP B5D2-2 4.4 22:53:13 10° NNE 22:58:16 48° E 23:01:16 23° SSE
OTV 4 2.4 22:56:44 10° SW 22:57:53 17° SSW 22:57:53 17° SSW
DELTA 2 DEB (DPAF) 4.2 22:56:34 22° S 22:59:25 83° WSW 23:03:56 10° NNW
Cosmos 990 Rocket 4.1 22:54:42 10° SSW 22:59:49 75° WNW 23:05:00 10° NNE
Okean 1-7 4.4 22:57:23 10° NNE 23:00:57 25° ENE 23:02:33 20° ESE
Cosmos 1455 2.4 23:00:02 10° NNW 23:03:49 69° W 23:05:54 25° S
Cosmos 1346 3.6 23:02:06 20° SSW 23:03:58 56° WNW 23:06:58 10° N
BREEZE-M DEB (TANK) 1.8 23:03:22 10° WNW 23:05:24 88° NNE 23:06:26 35° ESE
CZ-4B R/B 4.4 23:02:24 10° N 23:07:29 51° WNW 23:12:28 10° SW
NOSS 2-3 (E) 4.5 23:08:25 26° SSE 23:10:29 38° ESE 23:15:37 10° NE
SL-16 R/B 2.3 23:05:30 10° NNW 23:11:12 73° ENE 23:14:25 27° SE
ARGOS 3.9 23:07:47 15° SSW 23:12:03 46° W 23:17:15 10° NNW
Cosmos 2333 Rocket 3.1 23:10:36 10° NW 23:15:59 42° WSW 23:19:45 19° SSW
Cosmos 1470 Rocket 4.4 23:13:26 12° SSW 23:17:19 48° WNW 23:21:31 10° N
Cosmos 1933 Rocket 4.4 23:14:13 12° SSW 23:18:13 50° WNW 23:22:34 10° N
Landsat 7 4.2 23:15:45 23° S 23:18:37 58° W 23:23:20 10° NNW
Lacrosse 4 Rocket 1.5 23:15:18 10° NNW 23:19:45 88° WSW 23:21:37 35° SSE
Cosmos 1703 Rocket 3.6 23:16:36 10° N 23:20:58 65° E 23:22:40 35° SSE
Cosmos 2297 Rocket 2.2 23:16:00 10° SSW 23:21:39 83° WNW 23:27:21 10° NNE
Cosmos 2219 Rocket 3.7 23:17:59 10° NW 23:22:39 28° WSW 23:26:34 13° SSW
SeaSat 1 4.0 23:20:10 14° E 23:23:24 26° NE 23:27:27 10° N
Cosmos 1933 3.3 23:19:57 10° N 23:24:02 78° E 23:25:27 39° SSE
Cosmos 44 Rocket 3.7 23:22:02 29° S 23:24:18 47° ESE 23:29:20 10° NE
Tiangong 1 1.1 23:26:45 10° W 23:29:31 57° SW 23:29:31 57° SW
Cosmos 1269 Rocket 4.1 23:25:33 10° NNW 23:30:51 71° WSW 23:33:24 31° S
Terra 2.2 23:32:08 28° S 23:34:29 58° W 23:39:12 10° NNW
NOSS 2-3 (C) 4.0 23:35:00 26° SSW 23:37:43 64° ESE 23:43:22 10° NE
CZ-4B R/B 4.0 23:37:27 11° ENE 23:38:08 11° ENE 23:39:15 10° NE
H-2A R/B 2.7 23:36:41 24° SSW 23:39:47 50° W 23:45:06 10° NNW
Cosmos 2221 Rocket 3.7 23:40:19 10° NNW 23:44:53 75° W 23:46:31 39° S
COSMOS 2455 3.2 23:39:30 10° NW 23:45:22 55° WSW 23:48:06 31° S
Cosmos 1603 4.1 23:39:57 10° NNW 23:45:32 55° ENE 23:48:14 30° SE
Cosmos 389 Rocket 2.3 23:42:25 10° N 23:45:58 74° E 23:46:22 64° SE
Cosmos 1048 Rocket 4.2 23:41:21 10° NNW 23:46:40 64° WSW 23:48:57 34° S
Cosmos 158 Rocket 4.0 23:43:01 10° NNW 23:48:18 72° ENE 23:50:15 38° SE
Cosmos 1125 Rocket 3.8 23:44:10 17° SSW 23:48:19 66° WNW 23:53:38 10° NNE
Cosmos 1626 4.2 23:46:10 11° SW 23:49:03 24° WNW 23:52:08 10° NNW
Spot 4 4.3 23:47:41 31° SSW 23:49:47 53° W 23:54:33 10° NNW
